Regional Weather Roundup
Issued by NWS

Home | Current Version | Previous Version | Graphics & Text | Print | Product List | Glossary Off
Versions: 1 2 3 4 5 6 7 8 9 10 11 12 13 14 15 16 17 18 19 20 21 22 23 24 25 26 27 28 29 30 31 32 33 34 35 36 37 38 39 40 41 42 43 44 45 46 47 48 49 50

000
ASUS43 KTOP 021408
RWRKS

WEATHER ROUNDUP FOR KANSAS
NATIONAL WEATHER SERVICE GOODLAND KS
900 AM CDT THU JUL 02 2015

NOTE:  "FAIR" INDICATES FEW OR NO CLOUDS BELOW 12,000 FEET WITH NO
SIGNIFICANT WEATHER AND/OR OBSTRUCTIONS TO VISIBILITY.

KSZ001>006-013>018-027>032-041>047-021500-
NORTHWEST KANSAS

CITY           SKY/WX    TMP DP  RH WIND       PRES   REMARKS
GOODLAND       SUNNY     67  56  67 NE16G23   30.10S
HAYS           CLOUDY    73  64  73 N7        29.98R
HILL CITY      LGT RAIN  67  64  90 N14       30.01S
RUSSELL        CLOUDY    74  71  91 E6        29.93S
$$

KSZ061>065-074>080-084>089-021500-
SOUTHWEST KANSAS

CITY           SKY/WX    TMP DP  RH WIND       PRES   REMARKS
DODGE CITY     MOSUNNY   75  63  66 N10       29.97R
ELKHART          N/A     75  62  64 N5          N/A
GARDEN CITY    RAIN      70  63  78 N13       30.00R
GREAT BEND     CLOUDY    75  68  78 SE6       29.96S
LIBERAL        CLOUDY    77  59  53 NE12      30.00R
$$

KSZ066>073-081>083-090>101-021500-
SOUTHEAST KANSAS

CITY           SKY/WX    TMP DP  RH WIND       PRES   REMARKS
CHANUTE        MOSUNNY   77  70  79 N9        29.86R
COFFEYVILLE    SUNNY     79  72  79 NW10      29.84R
HUTCHINSON     PTSUNNY   77  71  82 NE7       29.93S
MEDICINE LODGE   N/A     82  71  69 NE8       29.89R
NEWTON         MOSUNNY   77  70  78 N10       29.95R
PARSONS        SUNNY     79  72  79 N9        29.85R
WICHITA INTL   PTSUNNY   78  71  79 N15       29.90R
WICHITA JABRA  PTSUNNY   76  70  82 N12       29.91R
WICHITA MCCONL PTSUNNY   76  70  81 N13       29.91R
WINFIELD       MOSUNNY   81  72  74 N9        29.89R
$$

KSZ007>012-019>026-033>040-048>060-102>105-021500-
NORTHEAST KANSAS

CITY           SKY/WX    TMP DP  RH WIND       PRES   REMARKS
CONCORDIA      CLOUDY    73  69  87 N3        29.94R
EMPORIA        CLOUDY    73  69  87 NE14      29.90R
LAWRENCE       CLOUDY    74  68  81 NE10G16   29.91R
MANHATTAN      CLOUDY    76  70  82 NE7       29.91S
OLATHE IND     CLOUDY    72  69  90 NE6       29.91R
OLATHE EXE     CLOUDY    71  69  93 NE7       29.90R
SALINA         PTSUNNY   78  71  79 NE6       29.91S
TOPEKA BILLARD CLOUDY    74  70  87 N9        29.91R
TOPEKA FORBES  CLOUDY    76  69  79 NE8       29.91R
$$


USA.gov is the U.S. government's official web portal to all federal, state and local government web resources and services.